Preview of NWS' New Version of Forecast
This preview is not operational and should not be used for support decisions.

Regional Weather Roundup (RWR)

Issued by National Weather Service (NWS)

                            
000
ASUS46 KSEW 170410
RWRWA 

WASHINGTON REGIONAL WEATHER ROUNDUP
NATIONAL WEATHER SERVICE SEATTLE WA
900 PM PDT TUE JUL 16 2019

NOTE:"FAIR" INDICATES FEW OR NO CLOUDS BELOW 12,000 FEET WITH NO 
SIGNIFICANT WEATHER AND/OR OBSTRUCTIONS TO VISIBILITY.

WAZ507-509-555>559-170500-
SEATTLE, TACOMA, EVERETT, AND VICINITY
  
CITY           SKY/WX    TMP DP  RH WIND       PRES   REMARKS
EVERETT        PTCLDY    61  54  77 N6        29.95F                  
BOEING FIELD   MOCLDY    71  53  52 NW5       29.93S                  
RENTON         PTCLDY    73  56  54 W5        29.92F                  
SEATAC AIRPORT MOCLDY    70  55  59 SW10      29.95S                  
JBLM-MCCHORD   MOCLDY    69  60  73 W10       29.96R                  
PUYALLUP       CLOUDY    70  61  73 W6        29.96F                  
BREMERTON      MOCLDY    67  56  67 SW13      29.94F                  
JBLM-FT LEWIS  NOT AVBL                                               
TACOMA NARROWS MOCLDY    67  55  65 W8        29.95S                  
$$
 
WAZ001-503-506-510-514-515-170500-
NORTH INTERIOR
  
CITY           SKY/WX    TMP DP  RH WIND       PRES   REMARKS
BELLINGHAM     MOCLDY    67  54  63 S6        29.91F                  
FRIDAY HARBOR  CLOUDY    57  51  80 SE3       29.92F                  
EASTSOUND      MOCLDY    66  55  68 S9        29.89F                  
PORT ANGELES   MOCLDY    61  54  77 W9        29.95F                  
EDIZ HOOK      CLOUDY    59  53  80 W9        29.94S                  
PORT TOWNSEND  FAIR      66  55  68 NW7       29.92F                  
NAS WHIDBEY    CLOUDY    61  52  72 SW7       29.97F                  
ARLINGTON      PTCLDY    64  54  69 NW6       29.94F                  
BURLINGTON     CLEAR     63  55  77 S5        29.93F                  
$$
 
WAZ020-022-039-040-504-511-512-170500-
SOUTHWEST INTERIOR
  
CITY           SKY/WX    TMP DP  RH WIND       PRES   REMARKS
SHELTON        MOCLDY    67  55  65 W9        29.93F                  
OLYMPIA        MOCLDY    66  57  72 SW7       29.96F                  
CHEHALIS       FAIR      66  59  77 CALM      29.98F                  
KELSO          PTCLDY    66  56  70 W9        30.00F                  
VANCOUVER      MOCLDY    70  55  59 NW10      29.97S                  
SCAPPOOSE, OR  PTCLDY    67  55  65 N5        29.97S                  
PORTLAND, OR   MOCLDY    71  57  61 NW10      29.98R                  
$$
 
WAZ021-516-517-170500-
WASHINGTON COAST
  
CITY           SKY/WX    TMP DP  RH WIND       PRES   REMARKS
FORKS          PTCLDY    62  57  83 SW6       29.97S                  
HOQUIAM        CLOUDY    65  59  81 W10       29.99S                  
ASTORIA, OR    CLOUDY    64  58  80 W5        30.00F                  
$$
 
WAZ019-023-024-040-567>569-170500-
CASCADE MOUNTAINS AND COLUMBIA GORGE
  
CITY           SKY/WX    TMP DP  RH WIND       PRES   REMARKS
STAMPEDE PASS  PTCLDY    55  49  80 W5        30.03F                  
TROUTDALE, OR  MOCLDY    71  58  63 NW7       29.96S                  
HOOD RIVER, OR PTCLDY    72  52  49 CALM      29.93R                  
THE DALLES, OR CLEAR     75  51  43 W15       29.88R                  
$$

WAZ026-027-041>044-520-521-170500-
EAST SLOPES
  
CITY           SKY/WX    TMP DP  RH WIND       PRES   REMARKS
OMAK           PTCLDY    73  51  46 VRB5      29.82S                  
WENATCHEE      CLEAR     74  45  35 W10       29.85R                  
ELLENSBURG     CLEAR     69  50  50 NW14G22   29.92R                  
YAKIMA         CLOUDY    75  50  41 NW8       29.88R                  
SUNNYSIDE ARPT MOCLDY    74  59  57 CALM      29.84                   
YAKIMA TC      MOCLDY    73  46  37 NW8       29.88R                  
$$

WAZ028-034-035-170500-
COLUMBIA BASIN
  
CITY           SKY/WX    TMP DP  RH WIND       PRES   REMARKS
EPHRATA        PTCLDY    72  48  42 SW7       29.84S                  
MOSES LAKE     PTCLDY    79  49  34 SW7       29.85S                  
PASCO          PTCLDY    78  49  35 W6        29.82R                  
RICHLAND ARPT  PTCLDY    78  47  32 NW3       29.82S                  
HERMISTON, OR  PTCLDY    78  45  30 SW13      29.84R                  
$$

WAZ036>038-170500-
NORTHEAST WASHINGTON
  
CITY           SKY/WX    TMP DP  RH WIND       PRES   REMARKS
SPOKANE GEIGER MOCLDY    70  53  54 CALM      29.91S                  
SPOKANE FELTS  PTCLDY    68  52  56 N3        29.90S                  
FAIRCHILD AFB  NOT AVBL                                               
COEURDALENE,ID PTCLDY    66  51  58 N5        29.92S                  
DEER PARK      CLOUDY    63  55  75 NE6       29.91S                  
$$

WAZ029>033-170500-
SOUTHEAST WASHINGTON
  
CITY           SKY/WX    TMP DP  RH WIND       PRES   REMARKS
PULLMAN        CLEAR     68  44  42 W5        29.94S                  
LEWISTON, ID   CLEAR     77  44  30 W3        29.87S                  
WALLA WALLA    CLEAR     74  41  30 S5        29.87R                  
PENDLETON, OR  CLEAR     72  41  32 W12       29.89R                  
$$